Regional Weather Roundup
Issued by NWS

Home | Current Version | Previous Version | Graphics & Text | Print | Product List | Glossary On
Versions: 1 2 3 4 5 6 7 8 9 10 11 12 13 14 15 16 17 18 19 20 21 22 23 24 25 26 27 28 29 30 31 32 33 34 35 36 37 38 39 40 41 42 43 44 45 46 47 48 49 50
587
ASUS43 KDMX 281701
RWRIA

WEATHER ROUNDUP FOR IOWA
NATIONAL WEATHER SERVICE DES MOINES IA
1200 PM CDT SUN MAY 28 2017

NOTE: "FAIR" INDICATES FEW OR NO CLOUDS BELOW 12,000 FEET WITH NO
SIGNIFICANT WEATHER AND/OR OBSTRUCTIONS TO VISIBILITY.

* - THESE STATIONS ARE NOT NWS STATIONS...THUS NOT UNDER NWS
QUALITY CONTROL.  THEY ALSO DO NOT REPORT WEATHER SUCH
AS PRECIPITATION OR FOG.

IAZ001>003-012>014-020>022-031>034-043>046-281800-
   NORTHWEST IOWA

CITY           SKY/WX    TMP DP  RH WIND       PRES   REMARKS
CARROLL *      SUNNY     75  50  41 W9        29.86F
CHEROKEE *     SUNNY     71  48  44 W10G17    29.87S
DENISON *      SUNNY     73  48  40 W12       29.89F
LE MARS *      SUNNY     72  50  46 VRB6G17   29.89R
ORANGE CITY *  SUNNY     70  50  49 W10G17    29.88S
SHELDON *      SUNNY     68  45  42 NW14      29.86S
SIOUX CITY     SUNNY     74  52  46 NW13      29.88S
SPENCER        SUNNY     71  46  40 NW9G21    29.86S
STORM LAKE *     N/A     72  46  40 W9G18     29.87S
$$

IAZ055>058-069>071-079>083-090>094-281800-
   SOUTHWEST IOWA

CITY           SKY/WX    TMP DP  RH WIND       PRES   REMARKS
ATLANTIC *     SUNNY     73  54  49 W9        29.91R
AUDUBON *      SUNNY     72  52  49 W8        29.90S
CLARINDA *     SUNNY     73  52  46 N12       29.94S
COUNCIL BLFS * SUNNY     73  52  46 W10       29.92S
CRESTON *      SUNNY     72  52  49 NW14      29.92S
HARLAN  *      SUNNY     72  52  49 W13       29.93F
LAMONI         SUNNY     73  55  53 W14       29.90R
RED OAK *      SUNNY     73  54  49 VRB7      29.92S
SHENANDOAH *   SUNNY     73  54  49 NW8       29.93F
$$

IAZ047>049-059>061-072>074-084-281800-
   CENTRAL IOWA

CITY           SKY/WX    TMP DP  RH WIND       PRES   REMARKS
AMES           SUNNY     72  54  53 NW13      29.85S
ANKENY *       SUNNY     72  55  56 W8        29.86F
BOONE *        SUNNY     72 -36   1 VRB7G14   29.85S
CHARITON *     SUNNY     73  55  53 NW16      29.87S
DES MOINES     SUNNY     74  52  46 W9        29.86S
GRINNELL*      SUNNY     71  58  64 W17       29.85S
KNOXVILLE *    SUNNY     72  54  53 NW17G24   29.85S
MARSHALLTOWN   SUNNY     71  56  58 NW13      29.83S
NEWTON *       SUNNY     70  55  60 NW13      29.84S
PELLA *        SUNNY     72  54  53 W17       29.86S
PERRY *          N/A     71  53  51 NW5       29.87S
$$

IAZ004>006-015-016-023>025-035-036-281800-
   NORTH CENTRAL IOWA

CITY           SKY/WX    TMP DP  RH WIND       PRES   REMARKS
ALGONA *       SUNNY     72  43  35 N8G20     29.84S
CLARION *      SUNNY     73  43  33 NW16      29.82F
ESTHERVILLE    SUNNY     69  44  40 NW16G23   29.84R
FORT DODGE *   SUNNY     73  48  40 NW10      29.85F
MASON CITY     SUNNY     71  42  35 NW20G26   29.83S
FOREST CITY *    N/A     72  28  20 NW13G25   29.82S
WEBSTER CITY * SUNNY     73  46  38 W7G16     29.82F
IOWA FALLS *     N/A     71  52  50 W14       29.84F
$$

IAZ007>011-017>019-026>030-037>042-050>054-066-281800-
   NORTHEAST IOWA

CITY           SKY/WX    TMP DP  RH WIND       PRES   REMARKS
CEDAR RAPIDS   SUNNY     72  58  61 NW13      29.80S
CHARLES CITY * SUNNY     73  41  31 NW23      29.80S
CLINTON *      SUNNY     71  55  56 W10       29.80
DECORAH *      SUNNY     72  45  37 W10G17    29.76S
DUBUQUE        SUNNY     71  55  56 W14       29.78F
MONTICELLO *   SUNNY     72  57  60 W13G20    29.79S
OELWEIN *      SUNNY     72  46  40 NW22G29   29.80S
WATERLOO       SUNNY     72  48  42 NW17G23   29.79F
$$

IAZ064-065-067-068-078-281800-
   EAST CENTRAL IOWA

CITY           SKY/WX    TMP DP  RH WIND       PRES   REMARKS
DAVENPORT      SUNNY     72  51  47 NW10      29.81S
IOWA CITY      SUNNY     74  56  53 NW12      29.82S
MT. PLEASANT * SUNNY     73  51  46 W9        29.84S
MUSCATINE *    SUNNY     73  55  53 W12       29.82S
QUAD CITIES    SUNNY     74  50  42 NW10      29.80S
$$

IAZ062-063-075>077-085>089-095>099-281800-
   SOUTHEAST IOWA

CITY           SKY/WX    TMP DP  RH WIND       PRES   REMARKS
BURLINGTON     MOSUNNY   74  55  51 NW12      29.83R
FAIRFIELD *    SUNNY     73  55  53 NW12G20   29.84R
FORT MADISON * SUNNY     73  54  49 NW13G20   29.85R
KEOKUK *       MOSUNNY   75  55  50 W16       29.84R
OSKALOOSA *      N/A     74  50  43 W13       29.85S
OTTUMWA        SUNNY     74  54  49 W15       29.85R
WASHINGTON *   SUNNY     73  57  56 NW13      29.84S
$$

ABBREVIATIONS USED IN REMARKS
   TC - TEMPERATURES IN CELSIUS
  WCI - WIND CHILL INDEX
   HX - HEAT INDEX
  VSB - VISIBILITY
$$





USA.gov is the U.S. government's official web portal to all federal, state and local government web resources and services.